Location: Bois Neuf
(42.7667°N, 0.6333°E)
Time: 02:23:19
(UTC+00:00)

STARLINK-1310 - Pass Details

Date: 07 June 2020
Orbit: 548 x 551 km, 53.0° (Epoch: 09 July)

Event Time Altitude Azimuth Distance (km) Brightness Sun altitude
Exits shadow 00:48:10 23° 102° (ESE) 1,192 5.3 -23.4°
Drops below altitude 10° 00:50:30 10° 73° (ENE) 1,849 6.7 -23.3°
Enters shadow 01:50:01 -65° 235° (SW) 12,177 10.4 -19.4°
Maximum altitude 02:26:39 53° 330° (NNW) 696 4.2 -15.9°
